When you browse on this site, cookies collect data to enhance your experience and personalize the content and advertising you see.
Visit our Privacy Policy to learn more. By continuing to use the site, you agree to this use of cookies and data.
  • In Austria
  • List of Countries
  • For 7 days
  • Water Temperature
  • Satellite Maps
  • Weather Map
  • News
  • Weather Widgets
  • user-avatar
    Login

    Hourly Weather Sumgayit

    Today, 22 May, Wednesday

    Time Temperature Precipitation Wind Pressure Humidity
    00:00 +17°C° 0 mm 3 mps 744 mmHg 50%
    01:00 +17°C° 0 mm 2 mps 744 mmHg 52%
    02:00 +17°C° 0 mm 2 mps 744 mmHg 53%
    03:00 +16°C° 0 mm 1 mps 743 mmHg 55%
    04:00 +18°C° 0 mm 1 mps 743 mmHg 54%
    05:00 +18°C° 0 mm 1 mps 743 mmHg 52%
    06:00 +16°C° 0 mm 0 mps 743 mmHg 50%
    07:00 +19°C° 0 mm 1 mps 743 mmHg 47%
    08:00 +20°C° 0 mm 2 mps 743 mmHg 43%
    09:00 +21°C° 0 mm 3 mps 743 mmHg 42%
    10:00 +22°C° 0 mm 4 mps 742 mmHg 40%
    11:00 +23°C° 0 mm 5 mps 742 mmHg 39%
    12:00 +25°C° 0 mm 5 mps 742 mmHg 37%
    13:00 +24°C° 0 mm 6 mps 742 mmHg 36%
    14:00 +24°C° 0 mm 6 mps 741 mmHg 36%
    15:00 +24°C° 0 mm 6 mps 741 mmHg 35%
    16:00 +23°C° 0 mm 6 mps 740 mmHg 36%
    17:00 +23°C° 0 mm 6 mps 740 mmHg 37%
    18:00 +22°C° 0 mm 6 mps 740 mmHg 39%
    19:00 +21°C° 0 mm 6 mps 740 mmHg 43%
    20:00 +21°C° 0 mm 6 mps 739 mmHg 47%
    21:00 +20°C° 0 mm 6 mps 739 mmHg 52%
    22:00 +20°C° 0 mm 6 mps 739 mmHg 53%
    23:00 +20°C° 0 mm 7 mps 739 mmHg 55%

    Tomorrow, 23 May, Thursday

    Time Temperature Precipitation Wind Pressure Humidity
    00:00 +18°C° 0 mm 7 mps 738 mmHg 57%
    01:00 +19°C° 0 mm 6 mps 738 mmHg 58%
    02:00 +19°C° 0 mm 5 mps 738 mmHg 59%
    03:00 +19°C° 0 mm 4 mps 738 mmHg 60%
    04:00 +19°C° 0 mm 3 mps 738 mmHg 57%
    05:00 +19°C° 0 mm 2 mps 738 mmHg 55%
    06:00 +20°C° 0 mm 1 mps 738 mmHg 52%
    07:00 +22°C° 0 mm 1 mps 738 mmHg 49%
    08:00 +23°C° 0 mm 1 mps 738 mmHg 45%
    09:00 +24°C° 0 mm 2 mps 738 mmHg 41%
    10:00 +25°C° 0 mm 2 mps 738 mmHg 38%
    11:00 +26°C° 0 mm 2 mps 738 mmHg 35%
    12:00 +27°C° 0 mm 3 mps 738 mmHg 32%
    13:00 +27°C° 0 mm 3 mps 738 mmHg 33%
    14:00 +27°C° 0 mm 4 mps 737 mmHg 34%
    15:00 +28°C° 0 mm 5 mps 737 mmHg 35%
    16:00 +26°C° 0 mm 5 mps 737 mmHg 41%
    17:00 +25°C° 0 mm 4 mps 737 mmHg 46%
    18:00 +23°C° 0 mm 4 mps 737 mmHg 52%
    19:00 +23°C° 0 mm 4 mps 737 mmHg 52%
    20:00 +22°C° 0 mm 3 mps 738 mmHg 52%
    21:00 +22°C° 0 mm 3 mps 738 mmHg 52%
    22:00 +21°C° 0 mm 2 mps 738 mmHg 53%
    23:00 +21°C° 0 mm 2 mps 738 mmHg 53%

    Day after tomorrow, 24 May, Friday

    Time Temperature Precipitation Wind Pressure Humidity
    00:00 +22°C° 0 mm 1 mps 738 mmHg 54%
    01:00 +22°C° 0 mm 1 mps 738 mmHg 56%
    02:00 +21°C° 0 mm 1 mps 738 mmHg 58%
    03:00 +21°C° 0 mm 1 mps 738 mmHg 60%
    04:00 +21°C° 0 mm 1 mps 738 mmHg 59%
    05:00 +21°C° 0 mm 1 mps 738 mmHg 58%
    06:00 +22°C° 0 mm 1 mps 739 mmHg 56%
    07:00 +21°C° 0 mm 2 mps 739 mmHg 52%
    08:00 +23°C° 0 mm 2 mps 739 mmHg 48%
    09:00 +24°C° 0 mm 3 mps 740 mmHg 44%
    10:00 +25°C° 0 mm 3 mps 740 mmHg 42%
    11:00 +26°C° 0 mm 3 mps 739 mmHg 41%
    12:00 +26°C° 0 mm 3 mps 739 mmHg 39%
    13:00 +26°C° 0 mm 4 mps 739 mmHg 39%
    14:00 +26°C° 0 mm 4 mps 739 mmHg 39%
    15:00 +26°C° 0 mm 5 mps 739 mmHg 39%
    16:00 +26°C° 0 mm 5 mps 739 mmHg 41%
    17:00 +25°C° 0 mm 5 mps 739 mmHg 44%
    18:00 +23°C° 0 mm 4 mps 739 mmHg 47%
    19:00 +24°C° 0 mm 3 mps 740 mmHg 50%
    20:00 +22°C° 0 mm 3 mps 740 mmHg 53%
    21:00 +23°C° 0 mm 2 mps 741 mmHg 55%
    22:00 +23°C° 0 mm 2 mps 741 mmHg 55%
    23:00 +23°C° 0 mm 2 mps 740 mmHg 55%

    25 May, Saturday

    Time Temperature Precipitation Wind Pressure Humidity
    00:00 +23°C° 0 mm 2 mps 740 mmHg 55%
    01:00 +21°C° 0 mm 2 mps 740 mmHg 56%
    02:00 +21°C° 0 mm 3 mps 740 mmHg 57%
    03:00 +21°C° 0 mm 3 mps 740 mmHg 58%
    04:00 +21°C° 0 mm 3 mps 740 mmHg 57%
    05:00 +21°C° 0 mm 4 mps 740 mmHg 57%
    06:00 +22°C° 0 mm 5 mps 740 mmHg 56%
    07:00 +23°C° 0 mm 6 mps 740 mmHg 54%
    08:00 +24°C° 0 mm 7 mps 740 mmHg 52%
    09:00 +26°C° 0 mm 8 mps 739 mmHg 50%
    10:00 +27°C° 0 mm 8 mps 739 mmHg 48%
    11:00 +28°C° 0 mm 9 mps 739 mmHg 45%
    12:00 +29°C° 0 mm 9 mps 738 mmHg 43%
    13:00 +29°C° 0 mm 9 mps 738 mmHg 42%
    14:00 +31°C° 0 mm 9 mps 737 mmHg 41%
    15:00 +31°C° 0 mm 9 mps 737 mmHg 39%
    16:00 +29°C° 0 mm 9 mps 736 mmHg 43%
    17:00 +28°C° 0 mm 9 mps 736 mmHg 46%
    18:00 +27°C° 0 mm 8 mps 736 mmHg 49%
    19:00 +26°C° 0.1 mm 7 mps 736 mmHg 53%
    20:00 +24°C° 0.1 mm 7 mps 736 mmHg 56%
    21:00 +23°C° 0.1 mm 6 mps 736 mmHg 59%
    22:00 +23°C° 0.1 mm 5 mps 736 mmHg 60%
    23:00 +23°C° 0.1 mm 5 mps 736 mmHg 60%

    26 May, Sunday

    Time Temperature Precipitation Wind Pressure Humidity
    00:00 +23°C° 0.1 mm 5 mps 735 mmHg 61%
    01:00 +23°C° 0 mm 5 mps 735 mmHg 58%
    02:00 +23°C° 0 mm 5 mps 735 mmHg 55%
    03:00 +23°C° 0 mm 5 mps 735 mmHg 53%
    04:00 +25°C° 0 mm 5 mps 735 mmHg 50%
    05:00 +25°C° 0 mm 4 mps 735 mmHg 47%
    06:00 +25°C° 0 mm 4 mps 736 mmHg 44%
    07:00 +27°C° 0 mm 4 mps 736 mmHg 39%
    08:00 +29°C° 0 mm 3 mps 736 mmHg 34%
    09:00 +30°C° 0 mm 3 mps 737 mmHg 29%
    10:00 +32°C° 0 mm 4 mps 737 mmHg 32%
    11:00 +32°C° 0 mm 5 mps 737 mmHg 35%
    12:00 +32°C° 0 mm 6 mps 737 mmHg 37%
    13:00 +32°C° 0 mm 7 mps 737 mmHg 39%
    14:00 +31°C° 0 mm 8 mps 737 mmHg 41%
    15:00 +31°C° 0 mm 9 mps 736 mmHg 42%
    16:00 +31°C° 0 mm 8 mps 737 mmHg 44%
    17:00 +29°C° 0 mm 8 mps 737 mmHg 46%
    18:00 +28°C° 0 mm 7 mps 737 mmHg 48%
    19:00 +28°C° 0.2 mm 6 mps 738 mmHg 50%
    20:00 +27°C° 0.2 mm 6 mps 738 mmHg 52%
    21:00 +26°C° 0.2 mm 5 mps 738 mmHg 54%
    22:00 +26°C° 0 mm 5 mps 738 mmHg 54%
    23:00 +26°C° 0 mm 5 mps 738 mmHg 54%

    27 May, Monday

    Time Temperature Precipitation Wind Pressure Humidity
    00:00 +25°C° 0 mm 5 mps 738 mmHg 54%
    01:00 +25°C° 0.3 mm 4 mps 738 mmHg 55%
    02:00 +24°C° 0.3 mm 3 mps 738 mmHg 57%
    03:00 +24°C° 0.3 mm 3 mps 738 mmHg 58%
    04:00 +24°C° 0.1 mm 3 mps 739 mmHg 56%
    05:00 +24°C° 0.1 mm 3 mps 739 mmHg 53%
    06:00 +25°C° 0.1 mm 3 mps 740 mmHg 51%
    07:00 +26°C° 0 mm 4 mps 740 mmHg 47%
    08:00 +27°C° 0 mm 4 mps 740 mmHg 43%
    09:00 +28°C° 0 mm 5 mps 740 mmHg 39%
    10:00 +29°C° 0 mm 7 mps 740 mmHg 37%
    11:00 +29°C° 0 mm 8 mps 740 mmHg 36%
    12:00 +31°C° 0 mm 9 mps 740 mmHg 34%
    13:00 +31°C° 0 mm 10 mps 741 mmHg 34%
    14:00 +31°C° 0 mm 10 mps 741 mmHg 35%
    15:00 +29°C° 0 mm 11 mps 741 mmHg 35%
    16:00 +29°C° 0 mm 11 mps 741 mmHg 38%
    17:00 +28°C° 0 mm 11 mps 741 mmHg 41%
    18:00 +27°C° 0 mm 11 mps 741 mmHg 44%
    19:00 +26°C° 0 mm 10 mps 741 mmHg 45%
    20:00 +26°C° 0 mm 9 mps 742 mmHg 46%
    21:00 +24°C° 0 mm 9 mps 742 mmHg 48%
    22:00 +24°C° 0 mm 8 mps 742 mmHg 48%
    23:00 +24°C° 0 mm 7 mps 742 mmHg 47%
    Show more